CW4221 Weather Reports


Display with metric or nautical units.
time (UTC)temp
F
wind
direction
speed
MPH
gust
MPH
rain 1hr
in
rain 24hr
in
rain mn
in
humidity
%
barometer
mb
20260510004325 73 51 0.0 0.0 0.00 0.00 0.00 52 1010.1
20260510003820 73 51 0.0 0.0 0.00 0.00 0.00 56 1010.1
20260510003320 74 51 0.0 0.0 0.00 0.00 0.00 54 1010.0
20260510002816 76 50 0.0 0.0 0.00 0.00 0.00 51 1010.0
20260510002312 77 57 0.0 0.0 0.00 0.00 0.00 45 1010.0
20260510001829 77 57 0.0 0.0 0.00 0.00 0.00 41 1010.0
20260510001344 77 57 0.0 0.0 0.00 0.00 0.00 46 1010.0
20260510000819 77 259 0.0 0.0 0.00 0.00 0.00 40 1010.0
20260510000315 77 260 0.0 0.0 0.00 0.00 0.00 39 1010.0
20260509235810 78 260 0.0 0.0 0.00 0.00 0.00 38 1010.0
20260509235346 79 260 0.0 0.0 0.00 0.00 0.00 37 1010.0
20260509234825 80 259 0.0 0.0 0.00 0.00 0.00 38 1010.0
20260509234321 80 213 0.0 0.0 0.00 0.00 0.00 38 1010.0
20260509233816 80 197 0.0 0.0 0.00 0.00 0.00 36 1010.0
20260509233312 80 240 0.0 0.0 0.00 0.00 0.00 38 1009.9
20260509232830 80 275 0.0 0.0 0.00 0.00 0.00 37 1010.0
20260509232326 80 253 0.0 1.0 0.00 0.00 0.00 37 1010.0
20260509231842 80 228 0.0 1.0 0.00 0.00 0.00 38 1010.0
20260509231317 81 214 0.0 0.0 0.00 0.00 0.00 35 1010.0
20260509230813 81 214 0.0 0.0 0.00 0.00 0.00 37 1010.0
20260509230314 81 230 0.0 0.0 0.00 0.00 0.00 31 1010.0
20260509225829 81 255 0.0 0.0 0.00 0.00 0.00 34 1010.0
20260509225326 81 254 0.0 0.0 0.00 0.00 0.00 39 1010.0
20260509224841 81 254 0.0 0.0 0.00 0.00 0.00 37 1010.0
20260509224338 81 300 0.0 0.0 0.00 0.00 0.00 34 1010.0
20260509223813 81 300 0.0 0.0 0.00 0.00 0.00 37 1010.0
20260509223329 81 263 0.0 0.0 0.00 0.00 0.00 34 1010.0
20260509222826 81 263 0.0 0.0 0.00 0.00 0.00 32 1010.1
20260509222327 81 267 0.0 0.0 0.00 0.00 0.00 34 1010.0
20260509221825 81 210 0.0 1.0 0.00 0.00 0.00 31 1010.1
20260509221342 81 252 0.0 8.0 0.00 0.00 0.00 34 1010.1
20260509220818 81 239 1.0 8.0 0.00 0.00 0.00 38 1010.1
20260509220314 82 261 0.0 0.0 0.00 0.00 0.00 38 1010.0
20260509215829 82 322 0.0 1.0 0.00 0.00 0.00 34 1010.0
20260509215325 82 208 0.0 1.0 0.00 0.00 0.00 37 1009.9
20260509214822 82 280 0.0 1.0 0.00 0.00 0.00 33 1010.0
20260509214321 82 286 0.0 0.0 0.00 0.00 0.00 37 1010.1
20260509213817 81 345 0.0 0.0 0.00 0.00 0.00 35 1010.1
20260509213315 82 258 0.0 1.0 0.00 0.00 0.00 37 1010.1
20260509212811 82 265 0.0 1.0 0.00 0.00 0.00 39 1010.0
20260509212326 82 339 0.0 0.0 0.00 0.00 0.00 37 1010.0
20260509211823 81 340 0.0 0.0 0.00 0.00 0.00 38 1010.0
20260509211318 81 338 0.0 0.0 0.00 0.00 0.00 39 1010.0
20260509210820 82 342 0.0 1.0 0.00 0.00 0.00 40 1010.1
20260509210316 82 250 0.0 1.0 0.00 0.00 0.00 38 1010.1
20260509205813 82 223 0.0 0.0 0.00 0.00 0.00 36 1010.2
20260509205310 81 239 0.0 0.0 0.00 0.00 0.00 35 1010.3
20260509204826 82 238 0.0 0.0 0.00 0.00 0.00 37 1010.4
20260509204322 82 248 0.0 0.0 0.00 0.00 0.00 34 1010.3
20260509203819 82 219 0.0 0.0 0.00 0.00 0.00 35 1010.3
20260509203319 82 116 0.0 0.0 0.00 0.00 0.00 38 1010.4
20260509202815 82 250 0.0 0.0 0.00 0.00 0.00 35 1010.4
20260509202312 82 341 0.0 0.0 0.00 0.00 0.00 35 1010.5
20260509201829 82 337 0.0 1.0 0.00 0.00 0.00 34 1010.7
20260509201326 82 350 0.0 4.0 0.00 0.00 0.00 41 1010.7
20260509200842 82 346 0.0 4.0 0.00 0.00 0.00 40 1010.8
20260509200318 82 246 0.0 0.0 0.00 0.00 0.00 38 1010.7
20260509195833 82 257 0.0 0.0 0.00 0.00 0.00 39 1010.8
20260509195312 82 331 0.0 0.0 0.00 0.00 0.00 42 1010.9
20260509194828 82 275 0.0 7.0 0.00 0.00 0.00 38 1010.9
20260509194324 82 254 0.0 7.0 0.00 0.00 0.00 37 1011.0
20260509193821 82 239 0.0 0.0 0.00 0.00 0.00 41 1010.9
20260509193317 82 240 0.0 0.0 0.00 0.00 0.00 38 1010.9
20260509192813 82 260 0.0 0.0 0.00 0.00 0.00 35 1011.0
20260509192309 82 267 0.0 0.0 0.00 0.00 0.00 39 1011.0
20260509191810 82 321 0.0 0.0 0.00 0.00 0.00 39 1010.9
20260509191326 81 208 0.0 0.0 0.00 0.00 0.00 35 1010.9
20260509190822 81 321 0.0 0.0 0.00 0.00 0.00 37 1011.0
20260509190318 81 229 0.0 0.0 0.00 0.00 0.00 40 1011.1
20260509185834 81 335 0.0 0.0 0.00 0.00 0.00 39 1011.1
20260509185309 81 273 0.0 1.0 0.00 0.00 0.00 41 1011.1
20260509184825 80 278 0.0 3.0 0.00 0.00 0.00 38 1011.1
20260509184321 80 212 0.0 3.0 0.00 0.00 0.00 37 1011.1
20260509183822 80 326 0.0 1.0 0.00 0.00 0.00 40 1011.1
20260509183319 80 206 0.0 9.0 0.00 0.00 0.00 41 1011.0
20260509182815 80 236 0.0 9.0 0.00 0.00 0.00 40 1011.0
20260509182331 80 5 0.0 0.0 0.00 0.00 0.00 39 1011.0
20260509181827 80 312 0.0 0.0 0.00 0.00 0.00 42 1010.9
20260509181323 80 238 0.0 3.0 0.00 0.00 0.00 41 1011.0
20260509180820 80 243 0.0 3.0 0.00 0.00 0.00 42 1011.1
20260509180316 80 256 0.0 3.0 0.00 0.00 0.00 45 1011.1
20260509175836 80 327 0.0 3.0 0.00 0.00 0.00 47 1011.1
20260509175311 80 332 0.0 4.0 0.00 0.00 0.00 44 1011.1
20260509174847 80 244 0.0 1.0 0.00 0.00 0.00 45 1011.2
20260509174323 80 251 0.0 1.0 0.00 0.00 0.00 49 1011.2
20260509173819 79 351 0.0 1.0 0.00 0.00 0.00 45 1011.1
20260509173316 79 325 0.0 0.0 0.00 0.00 0.00 45 1011.2
20260509172812 79 339 0.0 0.0 0.00 0.00 0.00 46 1011.4
20260509172328 79 342 0.0 3.0 0.00 0.00 0.00 46 1011.4
20260509171810 78 346 0.0 3.0 0.00 0.00 0.00 46 1011.4
20260509171327 78 324 0.0 1.0 0.00 0.00 0.00 45 1011.4
20260509170823 78 355 0.0 1.0 0.00 0.00 0.00 46 1011.6
20260509170317 78 257 0.0 1.0 0.00 0.00 0.00 47 1011.6
20260509165812 78 253 0.0 1.0 0.00 0.00 0.00 48 1011.6
20260509165328 78 331 0.0 0.0 0.00 0.00 0.00 53 1011.5
20260509164825 78 255 0.0 5.0 0.00 0.00 0.00 51 1011.4
20260509164342 78 245 0.0 5.0 0.00 0.00 0.00 48 1011.4
20260509163821 78 347 0.0 9.0 0.00 0.00 0.00 50 1011.3
20260509163317 77 330 0.0 9.0 0.00 0.00 0.00 49 1011.4
20260509162813 77 240 0.0 2.0 0.00 0.00 0.00 54 1011.5
20260509162330 77 258 0.0 2.0 0.00 0.00 0.00 52 1011.4
20260509161827 77 348 0.0 1.0 0.00 0.00 0.00 53 1011.4
20260509161323 77 240 0.0 1.0 0.00 0.00 0.00 53 1011.5
20260509160819 76 288 0.0 1.0 0.00 0.00 0.00 51 1011.6
20260509160314 76 259 0.0 0.0 0.00 0.00 0.00 52 1011.4
20260509155830 76 221 0.0 2.0 0.00 0.00 0.00 55 1011.4
20260509155310 75 210 0.0 1.0 0.00 0.00 0.00 60 1011.4
20260509135317 0 0.0 0.0 0.00 0.00 0.00 1011.1
20260509134813 0 0.0 0.0 0.00 0.00 0.00 1011.1
20260509134349 0 0.0 0.0 0.00 0.00 0.00 1011.2
20260509133823 0 0.0 0.0 0.00 0.00 0.00 1011.2
20260509133319 0 0.0 0.0 0.00 0.00 0.00 1011.1
20260509132819 0 0.0 0.0 0.00 0.00 0.00 1011.1
20260509132336 0 0.0 0.0 0.00 0.00 0.00 1011.0
20260509131831 0 0.0 0.0 0.00 0.00 0.00 1011.0
20260509131321 0 0.0 0.0 0.00 0.00 0.00 1010.9
20260509130818 0 0.0 0.0 0.00 0.00 0.00 1010.8
20260509130334 0 0.0 0.0 0.00 0.00 0.00 1010.8
20260509125909 57 294 0.0 0.0 0.00 0.00 0.00 97 1010.9
20260509125328 57 294 0.0 0.0 0.00 0.00 0.00 97 1010.9
20260509124823 56 74 0.0 0.0 0.00 0.00 0.00 97 1010.9
20260509124318 56 42 0.0 0.0 0.00 0.00 0.00 97 1010.9
20260509123818 55 43 0.0 0.0 0.00 0.00 0.00 97 1010.8
20260509123311 54 42 0.0 0.0 0.00 0.00 0.00 97 1010.8
20260509122827 54 20 0.0 0.0 0.00 0.00 0.00 97 1010.8
20260509122324 53 20 0.0 0.0 0.00 0.00 0.00 96 1010.7
20260509121819 52 20 0.0 0.0 0.00 0.00 0.00 97 1010.8
20260509121316 51 118 0.0 0.0 0.00 0.00 0.00 96 1010.8
20260509120832 50 127 0.0 0.0 0.00 0.00 0.00 96 1010.7
20260509120326 50 127 0.0 0.0 0.00 0.00 0.00 96 1010.6
20260509115827 50 127 0.0 0.0 0.00 0.00 0.00 96 1010.5
20260509115342 49 350 0.0 0.0 0.00 0.00 0.00 96 1010.5
20260509114816 49 355 0.0 1.0 0.00 0.00 0.00 96 1010.4
20260509114332 47 40 0.0 1.0 0.00 0.00 0.00 96 1010.4
20260509113828 46 355 0.0 0.0 0.00 0.00 0.00 95 1010.4
20260509113323 46 355 0.0 0.0 0.00 0.00 0.00 95 1010.4
20260509112839 46 355 0.0 0.0 0.00 0.00 0.00 95 1010.3
20260509112313 47 355 0.0 0.0 0.00 0.00 0.00 95 1010.3
20260509111809 46 344 0.0 0.0 0.00 0.00 0.00 95 1010.3
20260509111310 46 140 0.0 0.0 0.00 0.00 0.00 95 1010.2
20260509110827 46 140 0.0 0.0 0.00 0.00 0.00 95 1010.2
20260509110324 47 200 0.0 0.0 0.00 0.00 0.00 95 1010.1
20260509105819 47 200 0.0 0.0 0.00 0.00 0.00 96 1010.2
20260509105315 47 200 0.0 0.0 0.00 0.00 0.00 95 1010.2
20260509104810 46 217 0.0 0.0 0.00 0.00 0.00 95 1010.1
20260509104346 46 217 0.0 0.0 0.00 0.00 0.00 96 1010.0
20260509103822 46 217 0.0 0.0 0.00 0.00 0.00 95 1010.0
20260509103321 47 217 0.0 0.0 0.00 0.00 0.00 95 1010.0
20260509102817 48 217 0.0 0.0 0.00 0.00 0.00 95 1010.1
20260509102313 48 217 0.0 0.0 0.00 0.00 0.00 96 1010.1
20260509101829 47 217 0.0 0.0 0.00 0.00 0.00 95 1010.1
20260509101325 47 217 0.0 0.0 0.00 0.00 0.00 95 1010.0
20260509100821 47 217 0.0 0.0 0.00 0.00 0.00 95 1010.1
20260509100318 47 217 0.0 0.0 0.00 0.00 0.00 95 1010.1
20260509095818 47 217 0.0 0.0 0.00 0.00 0.00 95 1010.2
20260509095314 47 217 0.0 0.0 0.00 0.00 0.00 95 1010.1
20260509094849 48 217 0.0 0.0 0.00 0.00 0.00 95 1010.2
20260509094344 48 217 0.0 0.0 0.00 0.00 0.00 95 1010.1
20260509093839 48 217 0.0 0.0 0.00 0.00 0.00 95 1010.1
20260509093333 48 217 0.0 0.0 0.00 0.00 0.00 95 1010.1
20260509092828 47 217 0.0 0.0 0.00 0.00 0.00 95 1010.1
20260509092325 47 217 0.0 0.0 0.00 0.00 0.00 95 1010.1
20260509091821 47 217 0.0 0.0 0.00 0.00 0.00 94 1010.1
20260509091320 48 217 0.0 0.0 0.00 0.00 0.00 95 1010.0
20260509090837 48 217 0.0 0.0 0.00 0.00 0.00 95 1010.0
20260509090312 48 217 0.0 0.0 0.00 0.00 0.00 95 1010.0
20260509085824 48 217 0.0 0.0 0.00 0.00 0.00 94 1010.0
20260509085320 49 217 0.0 0.0 0.00 0.00 0.00 95 1010.0
20260509084816 49 217 0.0 0.0 0.00 0.00 0.00 95 1010.0
20260509084312 49 217 0.0 0.0 0.00 0.00 0.00 95 1010.1
20260509083827 48 217 0.0 0.0 0.00 0.00 0.00 95 1010.1
20260509083327 49 217 0.0 0.0 0.00 0.00 0.00 95 1010.0
20260509082823 49 217 0.0 0.0 0.00 0.00 0.00 95 1010.0
20260509082319 49 217 0.0 0.0 0.00 0.00 0.00 95 1010.0
20260509081834 49 217 0.0 0.0 0.00 0.00 0.00 95 1010.1
20260509081349 49 217 0.0 0.0 0.00 0.00 0.00 94 1010.1
20260509080825 49 217 0.0 0.0 0.00 0.00 0.00 94 1010.1
20260509080322 50 217 0.0 0.0 0.00 0.00 0.00 94 1010.1
20260509075816 51 217 0.0 0.0 0.00 0.00 0.00 95 1010.0
20260509075317 51 217 0.0 0.0 0.00 0.00 0.00 95 1010.1
20260509074813 51 217 0.0 0.0 0.00 0.00 0.00 95 1010.0
20260509074328 50 217 0.0 0.0 0.00 0.00 0.00 95 1010.0
20260509073824 50 217 0.0 0.0 0.00 0.00 0.00 94 1010.0
20260509073320 50 217 0.0 0.0 0.00 0.00 0.00 94 1009.9
20260509072836 50 217 0.0 0.0 0.00 0.00 0.00 93 1010.0
20260509072331 51 217 0.0 0.0 0.00 0.00 0.00 94 1010.0
20260509071826 51 217 0.0 0.0 0.00 0.00 0.00 94 1009.9
20260509071342 51 217 0.0 0.0 0.00 0.00 0.00 94 1009.9
20260509070817 51 217 0.0 0.0 0.00 0.00 0.00 94 1010.0
20260509070316 52 217 0.0 0.0 0.00 0.00 0.00 94 1010.0
20260509065811 52 217 0.0 0.0 0.00 0.00 0.00 94 1009.9
20260509065328 52 217 0.0 0.0 0.00 0.00 0.00 94 1010.0
20260509064823 51 217 0.0 0.0 0.00 0.00 0.00 94 1010.0
20260509064340 51 217 0.0 0.0 0.00 0.00 0.00 93 1010.0
20260509063816 52 217 0.0 0.0 0.00 0.00 0.00 93 1009.9
20260509063312 52 217 0.0 0.0 0.00 0.00 0.00 94 1009.9
20260509062809 52 217 0.0 0.0 0.00 0.00 0.00 93 1010.0
20260509062310 53 217 0.0 0.0 0.00 0.00 0.00 93 1010.2
20260509061846 53 217 0.0 0.0 0.00 0.00 0.00 94 1010.2
20260509061342 54 217 0.0 0.0 0.00 0.00 0.00 93 1010.1
20260509060816 54 217 0.0 0.0 0.00 0.00 0.00 94 1010.1
20260509060312 53 217 0.0 0.0 0.00 0.00 0.00 93 1010.1
20260509055828 54 217 0.0 0.0 0.00 0.00 0.00 93 1010.2
20260509055323 54 217 0.0 0.0 0.00 0.00 0.00 93 1010.3
20260509054819 55 217 0.0 0.0 0.00 0.00 0.00 94 1010.2
20260509054320 55 217 0.0 0.0 0.00 0.00 0.00 94 1010.3
20260509053817 54 217 0.0 0.0 0.00 0.00 0.00 94 1010.3
20260509053314 54 217 0.0 0.0 0.00 0.00 0.00 92 1010.3
20260509052811 55 217 0.0 0.0 0.00 0.00 0.00 92 1010.3
20260509052328 56 217 0.0 0.0 0.00 0.00 0.00 93 1010.3
20260509051823 56 217 0.0 0.0 0.00 0.00 0.00 93 1010.2
20260509051319 56 217 0.0 0.0 0.00 0.00 0.00 92 1010.1
20260509050820 57 217 0.0 0.0 0.00 0.00 0.00 93 1010.1
20260509050315 56 217 0.0 0.0 0.00 0.00 0.00 93 1010.0
20260509045812 56 217 0.0 0.0 0.00 0.00 0.00 92 1010.0
20260509045327 57 217 0.0 0.0 0.00 0.00 0.00 92 1009.9
20260509044822 57 217 0.0 0.0 0.00 0.00 0.00 92 1009.9
20260509044318 58 217 0.0 0.0 0.00 0.00 0.00 92 1009.9
20260509043814 58 217 0.0 0.0 0.00 0.00 0.00 92 1009.9
20260509043311 57 217 0.0 0.0 0.00 0.00 0.00 91 1009.9
20260509042812 58 217 0.0 0.0 0.00 0.00 0.00 91 1009.8
20260509042328 58 217 0.0 0.0 0.00 0.00 0.00 91 1009.9
20260509041824 58 217 0.0 0.0 0.00 0.00 0.00 91 1009.9
20260509041320 58 217 0.0 0.0 0.00 0.00 0.00 90 1009.9
20260509040816 59 217 0.0 1.0 0.00 0.00 0.00 89 1009.9
20260509040311 59 215 0.0 1.0 0.00 0.00 0.00 89 1010.0
20260509035827 60 215 0.0 0.0 0.00 0.00 0.00 89 1010.0
20260509035328 60 216 0.0 0.0 0.00 0.00 0.00 89 1010.0
20260509034825 61 216 0.0 0.0 0.00 0.00 0.00 89 1010.0
20260509034320 61 216 0.0 0.0 0.00 0.00 0.00 88 1010.2
20260509033836 61 237 0.0 0.0 0.00 0.00 0.00 87 1010.2
20260509033311 61 9 0.0 0.0 0.00 0.00 0.00 87 1010.0
20260509032827 61 9 0.0 0.0 0.00 0.00 0.00 86 1010.0
20260509032322 61 9 0.0 0.0 0.00 0.00 0.00 86 1010.0
20260509031839 62 9 0.0 1.0 0.00 0.00 0.00 85 1010.1
20260509031313 62 5 0.0 2.0 0.00 0.00 0.00 84 1010.2
20260509030813 62 27 0.0 2.0 0.00 0.00 0.00 83 1010.2
20260509030349 63 14 0.0 1.0 0.00 0.00 0.00 82 1010.2
20260509025824 63 339 0.0 1.0 0.00 0.00 0.00 81 1010.0
20260509025320 64 338 0.0 5.0 0.00 0.00 0.00 79 1009.8
20260509024816 64 343 0.0 6.0 0.00 0.00 0.00 77 1009.6
20260509024312 65 360 0.0 6.0 0.00 0.00 0.00 75 1009.5
20260509023827 65 334 0.0 3.0 0.00 0.00 0.00 72 1009.4
20260509023324 65 333 0.0 3.0 0.00 0.00 0.00 71 1009.4
20260509022824 65 329 0.0 3.0 0.00 0.00 0.00 71 1009.1
20260509022321 65 328 0.0 0.0 0.00 0.00 0.00 70 1009.0
20260509021818 65 250 0.0 0.0 0.00 0.00 0.00 68 1008.6
20260509021315 65 250 0.0 0.0 0.00 0.00 0.00 68 1008.2
20260509020812 65 249 0.0 0.0 0.00 0.00 0.00 67 1007.9
20260509020328 65 248 0.0 0.0 0.00 0.00 0.00 66 1007.6
20260509015843 65 248 0.0 0.0 0.00 0.00 0.00 66 1007.5
20260509015323 65 212 0.0 0.0 0.00 0.00 0.00 67 1007.4
20260509014818 65 212 0.0 0.0 0.00 0.00 0.00 67 1007.3
20260509014315 65 211 0.0 0.0 0.00 0.00 0.00 67 1007.2
20260509013831 65 212 0.0 0.0 0.00 0.00 0.00 67 1007.2
20260509013346 65 212 0.0 0.0 0.00 0.00 0.00 67 1007.0
20260509012821 65 214 0.0 0.0 0.00 0.00 0.00 67 1006.9
20260509012337 65 211 0.0 0.0 0.00 0.00 0.00 67 1006.7
20260509011832 65 159 0.0 0.0 0.00 0.00 0.00 67 1006.5
20260509011327 65 188 0.0 0.0 0.00 0.00 0.00 67 1006.7
20260509010821 65 140 0.0 0.0 0.00 0.00 0.00 67 1006.8
20260509010322 65 134 0.0 0.0 0.00 0.00 0.00 67 1006.8
20260509005818 65 141 0.0 1.0 0.00 0.00 0.00 67 1007.0
20260509005313 65 221 0.0 1.0 0.00 0.00 0.00 66 1007.0
20260509004828 66 141 0.0 1.0 0.00 0.00 0.00 66 1007.3